Home   Weather   Nannestad   Past weeks

Flag for Norway Past Weather in Nannestad, Norway — Yesterday and Last 2 Weeks

46 °F

Partly cloudy.

Feels Like: 41 °F
Forecast: 40 / 48 °F
Wind: 10 mph from South

Location: Oslo Gardermoen Airport

Current Time: Oct 28, 2016 at 4:33:51 AM

Latest Report: Oct 28, 2016 at 3:50 AM

Visibility: N/A

Pressure: 29.65 "Hg

Humidity: 87%

Dew Point: 43 °F

Location of NannestadLocation

Past Weather in Nannestad — Graph


Nannestad Temperature Yesterday

Maximum temperature yesterday: 46 °F (at 12:20 AM)
Minimum temperature yesterday: 39 °F (at 7:50 AM)
Average temperature yesterday: 44 °F

High & Low Weather Summary for the Past Weeks

High46 °F (Oct 26, 11:20 PM)100% (Oct 17, 9:20 AM)30.54 "Hg (Oct 17, 9:20 AM)
Low30 °F (Oct 14, 3:50 AM)65% (Oct 13, 4:50 PM)29.65 "Hg (Oct 28, 2:50 AM)
Average39 °F87%30.29 "Hg
* Reported Oct 13 2:20 AM — Oct 28 2:50 AM, Nannestad, Weather by CustomWeather, © 2016

Note: Actual official high and low records may vary slightly from our data, if they occured in-between our weather recording intervals... More about our weather records


Nannestad Weather History for the Previous 24 Hours

Scroll right to see more
Time TempWeatherWind HumidityBarometerVisibility
2:50 AM
Fri, Oct 28
46 °FOvercast.10 mph87%29.65 "HgN/A
2:20 AM46 °FPassing clouds.10 mph87%29.68 "HgN/A
1:50 AM46 °FPartly cloudy.13 mph87%29.68 "HgN/A
1:20 AM46 °FPartly cloudy.15 mph87%29.71 "HgN/A
12:50 AM46 °FPassing clouds.14 mph87%29.71 "HgN/A
12:20 AM46 °FPassing clouds.9 mph87%29.74 "HgN/A
11:50 PM
Thu, Oct 27
45 °FPassing clouds.9 mph93%29.74 "HgN/A
11:20 PM45 °FPassing clouds.8 mph93%29.74 "HgN/A
10:50 PM45 °FPassing clouds.8 mph87%29.77 "HgN/A
10:20 PM46 °FPassing clouds.12 mph87%29.77 "HgN/A
9:50 PM46 °FPassing clouds.12 mph87%29.77 "HgN/A
9:20 PM46 °FPassing clouds.12 mph87%29.80 "HgN/A
8:50 PM46 °FPassing clouds.14 mph87%29.80 "HgN/A
8:20 PM46 °FPassing clouds.12 mph87%29.80 "HgN/A
7:50 PM45 °FPassing clouds.15 mph93%29.80 "HgN/A
7:20 PM45 °FClear.17 mph87%29.83 "Hg10 mi
6:50 PM45 °FPassing clouds.10 mph87%29.83 "HgN/A
6:20 PM45 °FPassing clouds.12 mph87%29.86 "HgN/A
5:50 PM45 °FPassing clouds.9 mph87%29.89 "HgN/A
5:20 PM46 °FPartly sunny.13 mph82%29.89 "HgN/A
4:50 PM46 °FPartly sunny.12 mph82%29.89 "HgN/A
4:20 PM45 °FPartly sunny.9 mph87%29.89 "HgN/A
3:50 PM45 °FPartly sunny.13 mph87%29.92 "HgN/A
3:20 PM46 °FPartly sunny.13 mph82%29.92 "HgN/A
2:50 PM46 °FPartly sunny.13 mph82%29.92 "HgN/A
2:20 PM45 °FPartly sunny.10 mph87%29.95 "HgN/A
1:50 PM45 °FPartly sunny.7 mph87%29.95 "HgN/A
1:20 PM45 °FPartly sunny.7 mph81%29.95 "HgN/A
12:50 PM45 °FPartly sunny.7 mph81%29.95 "HgN/A
12:20 PM43 °FPartly sunny.8 mph87%29.95 "HgN/A
11:50 AM43 °FPartly sunny.7 mph93%29.95 "HgN/A
11:20 AM43 °FPartly sunny.7 mph93%29.95 "HgN/A
10:50 AM43 °FPartly sunny.7 mph93%29.98 "HgN/A
10:20 AM43 °FBroken clouds.5 mph93%29.98 "HgN/A
9:50 AM41 °FFog.3 mph100%29.98 "HgN/A
9:20 AM41 °FPartly sunny.3 mph100%29.98 "HgN/A
8:50 AM41 °FPartly sunny.5 mph93%29.95 "HgN/A
8:20 AM41 °FPassing clouds.6 mph93%29.95 "HgN/A
7:50 AM39 °FLight fog.3 mph100%29.95 "HgN/A
7:20 AM41 °FPassing clouds.1 mph93%29.95 "HgN/A
6:50 AM41 °FLight fog.5 mph93%29.95 "HgN/A
6:20 AM41 °FPassing clouds.8 mph100%29.95 "HgN/A
5:50 AM43 °FClear.7 mph93%29.95 "Hg10 mi
5:20 AM41 °FPassing clouds.3 mph93%29.95 "HgN/A
4:50 AM43 °FClear.6 mph93%29.92 "Hg10 mi
4:20 AM43 °FPassing clouds.3 mph93%29.95 "HgN/A
Weather by CustomWeather, © 2016

See weather overviewHow to use our weather pages